Tracking 29892 objects as of 21-Nov-2024
HD Live streaming from Space Station
objects crossing your sky now

SITRO-AIS-5

Track SITRO-AIS-5 now!
10-day predictions
SITRO-AIS-5 is classified as:


NORAD ID: 57176
Int'l Code: 2023-091L
Perigee: 522.2 km
Apogee: 542.9 km
Inclination: 97.6 °
Period: 95.1 minutes
Semi major axis: 6903 km
RCS: Unknown
Launch date: June 27, 2023
Source: (TBD)
Launch site: VOSTOCHNY COSMODROME (VOSTO)

Uplink (MHz):
Downlink (MHz): 401.134
Beacon (MHz):
Mode: 2k4 GMSK_USP
Call sign: SC3227
Status: Active


Uplink (MHz):
Downlink (MHz): 436.260
Beacon (MHz):
Mode: LoRa
Call sign: RS52SE
Status: Active

Your satellite tracking list
Your tracking list is empty




NASA's NSSDC Master Catalog

Two Line Element Set (TLE):
1 57176U 23091L   24326.14346935  .00013479  00000-0  75314-3 0  9990
2 57176  97.5911  17.2912 0014979 307.2611  52.7254 15.13533353 77193
Source of the keplerian elements: AFSPC